Location: Peach Mountain Observatory
(42.3967°N, 83.9367°W)
Time: 05:16:25
(UTC-05:00)

S-56A Canister/Altair - Pass Details

Date: 25 January 2020
Orbit: 633 x 2500 km, 38.9° (Epoch: 25 February)

Event Time Altitude Azimuth Distance (km) Brightness Sun altitude
Rises 19:26:50 0° 220° (SW) 4,581 12.2 -19.6°
Reaches altitude 10° 19:30:51 10° 209° (SSW) 3,261 11.2 -20.4°
Maximum altitude 19:36:59 26° 156° (SSE) 1,825 9.2 -21.5°
Enters shadow 19:38:19 24° 136° (SE) 1,816 9.1 -21.7°
Drops below altitude 10° 19:41:36 10° 100° (E) 2,402 - -22.3°
Sets 19:44:05 0° 87° (E) 3,174 - -22.8°
